STARLINK-32665 (62203 NORAD) Tracking and Keplerian Element Data

This shows tracking and keplerian element data for the satellite.

Feedback or suggestion? Click here.




ElementValue
Catalog62203
NameSTARLINK-32665
Epoch Orbit946
Epoch Day34.27409424
Epoch Year2025
RAAN7.4644
Inclination43.0039
Eccentricity8.16E-05
Argument of Perigee281.6654
Mean Anonmoly78.4107
Mean Motion15.32093624
Decay Rate-2.79E-06
L11 62203U 24229M 25034.27409424 -.00000279 00000+0 -11116-6 0 9993
L22 62203 43.0039 7.4644 0000816 281.6654 78.4107 15.32093624 9467



Live tracking and technical data element details for STARLINK-32665 (NORAD 62203). STARLINK-32665 can be tracked NOW for your location showing map with azimuth and elevation plus other details from your city location.







IsCatalogInMostPopularTable: catalog: 62203, numindb: 12
Update: records affected: 1



GetName: 62203 STARLINK-32665

Hit Count: updated at: Sun, 18 May 2025 22:38:48 GMT